STARLINK-1909

decayed
NORAD ID: 47550 Int'l Des: 2021-009 Owner: SPXS Country: US Constellation: starlink
LEOCIRCULAR
グループ

STARLINK-1909について

説明を読み込み中...

高度履歴

Altitude vs Time

uPlot chart will show altitude changes over time

軌道要素

1 47550U 21009C 25095.23136564 .13273560 12444-4 46109-3 0 9993
2 47550 53.0318 29.0872 0003185 218.9433 281.1249 16.44485941231399
Epoch: Apr 5, 2025 • Age: 3686 hours

現在のステータス

Position data unavailable
打ち上げ日 Feb 4, 2021
運用期間 4.5 years
落下予定日 Apr 5, 2025
タイプ internet

技術仕様

分類 Payload
質量 260.00 kg
乾燥質量 248.00 kg
総質量 260.00 kg
長さ 0.20 m
直径 2.80 m
スパン 9.00 m
形状 Box + pan
製造者 SPXS
バスタイプ Starlink
フェーズステータス Unknown Transfer Status
所有者/国 SPXS/US

大規模コンステレーション

Loading constellations...